Satellite: FALCON
Catalog number: 30776
Epoch time:      09154.48350213
Element set:    0589
Inclination:      035.4328 deg
RA of node:       182.5531 deg
Eccentricity:    0.0000563
Arg of perigee:   209.2693 deg
Mean anomaly:     150.7991 deg
Mean motion:   15.03248335 rev/day
Decay rate:       1.66e-06 rev/day^2
Epoch rev:           12303
Checksum:              282

Satellite: MAST
Catalog number: 31126
Epoch time:      09154.88598693
Element set:    0611
Inclination:      097.9927 deg
RA of node:       210.3011 deg
Eccentricity:    0.0093728
Arg of perigee:   321.8125 deg
Mean anomaly:     037.6438 deg
Mean motion:   14.53497927 rev/day
Decay rate:       -1.1e-07 rev/day^2
Epoch rev:           11310
Checksum:              299

Satellite: CAPE1
Catalog number: 31130
Epoch time:      09154.63605150
Element set:    0617
Inclination:      097.9927 deg
RA of node:       208.2769 deg
Eccentricity:    0.0101678
Arg of perigee:   328.0461 deg
Mean anomaly:     031.4581 deg
Mean motion:   14.52059977 rev/day
Decay rate:        1.0e-08 rev/day^2
Epoch rev:           11272
Checksum:              288

Satellite: COMPASS
Catalog number: 32787
Epoch time:      09155.20267109
Element set:     373
Inclination:      097.9422 deg
RA of node:       219.1358 deg
Eccentricity:    0.0017086
Arg of perigee:   075.5641 deg
Mean anomaly:     284.7463 deg
Mean motion:   14.81606827 rev/day
Decay rate:       1.74e-06 rev/day^2
Epoch rev:            5952
Checksum:              318

Satellite: AAUSAT2
Catalog number: 32788
Epoch time:      09154.63138611
Element set:    0375
Inclination:      097.9416 deg
RA of node:       218.6245 deg
Eccentricity:    0.0016811
Arg of perigee:   077.2912 deg
Mean anomaly:     283.0183 deg
Mean motion:   14.81731005 rev/day
Decay rate:       3.90e-06 rev/day^2
Epoch rev:           05944
Checksum:              300

Satellite: DO-64
Catalog number: 32789
Epoch time:      09153.70747479
Element set:    0384
Inclination:      097.9481 deg
RA of node:       217.8620 deg
Eccentricity:    0.0016966
Arg of perigee:   079.2494 deg
Mean anomaly:     281.0612 deg
Mean motion:   14.81710757 rev/day
Decay rate:       2.84e-06 rev/day^2
Epoch rev:           05930
Checksum:              346

Satellite: CO-66
Catalog number: 32791
Epoch time:      09154.36595056
Element set:    0372
Inclination:      097.9459 deg
RA of node:       218.3401 deg
Eccentricity:    0.0017360
Arg of perigee:   075.1722 deg
Mean anomaly:     285.1405 deg
Mean motion:   14.81437747 rev/day
Decay rate:       2.61e-06 rev/day^2
Epoch rev:           05936
Checksum:              320

Satellite: RS-30
Catalog number: 32953
Epoch time:      09154.74798581
Element set:     320
Inclination:      082.5014 deg
RA of node:       264.9669 deg
Eccentricity:    0.0018741
Arg of perigee:   204.5807 deg
Mean anomaly:     155.4384 deg
Mean motion:   12.43001397 rev/day
Decay rate:        1.0e-07 rev/day^2
Epoch rev:            4672
Checksum:              298

Satellite: TACSAT-3
Catalog number: 35001
Epoch time:      09155.36137863
Element set:      18
Inclination:      040.4571 deg
RA of node:       317.3476 deg
Eccentricity:    0.0024324
Arg of perigee:   063.2103 deg
Mean anomaly:     297.1199 deg
Mean motion:   15.38783122 rev/day
Decay rate:      1.911e-05 rev/day^2
Epoch rev:             237
Checksum:              271

Satellite: PHARMSAT
Catalog number: 35002
Epoch time:      09153.86167682
Element set:    0023
Inclination:      040.4705 deg
RA of node:       326.2242 deg
Eccentricity:    0.0027074
Arg of perigee:   056.5765 deg
Mean anomaly:     303.7632 deg
Mean motion:   15.39553607 rev/day
Decay rate:      1.681e-05 rev/day^2
Epoch rev:           00213
Checksum:              270

Satellite: HAWKSAT1
Catalog number: 35003
Epoch time:      09153.85923822
Element set:      18
Inclination:      040.4717 deg
RA of node:       326.2150 deg
Eccentricity:    0.0026816
Arg of perigee:   063.7691 deg
Mean anomaly:     296.5880 deg
Mean motion:   15.39829972 rev/day
Decay rate:      2.609e-05 rev/day^2
Epoch rev:             214
Checksum:              300

Satellite: CP6
Catalog number: 35004
Epoch time:      09153.85831797
Element set:    0018
Inclination:      040.4631 deg
RA of node:       326.1835 deg
Eccentricity:    0.0028478
Arg of perigee:   058.7032 deg
Mean anomaly:     301.6568 deg
Mean motion:   15.39948102 rev/day
Decay rate:      3.168e-05 rev/day^2
Epoch rev:           00213
Checksum:              296

Satellite: AEROCUB3
Catalog number: 35005
Epoch time:      09155.22208032
Element set:      13
Inclination:      040.4765 deg
RA of node:       318.0744 deg
Eccentricity:    0.0026648
Arg of perigee:   069.8217 deg
Mean anomaly:     290.5457 deg
Mean motion:   15.39768439 rev/day
Decay rate:      3.336e-05 rev/day^2
Epoch rev:             234
Checksum:              290

/EX




_______________________________________________
Via the Keps mailing list courtesy of AMSAT-NA
http://amsat.org/mailman/listinfo/keps

--- ViaMAIL!/WC v1.60d
 * Origin: Chowdanet (401-724-4410) telnet://chowdanet.com  (1:323/120)